Temperature
3 3 3 4 4 3 3 3 3 3 3 4 3 3 3 3 3 3 3 3 3 3 3 3 3 4 4 4 4 4 5 5 5 5 5 5 6 6 6 6 6 6 7 7
3 4 3 3 4 3 3 3 3 3 3 3 3 3 3 3 3 3 3 3 3 3 3 3 3 3 3 4 4 4 4 4 4 5 5 5 5 5 5 6 6 6 6 6
3 3 4 4 4 4 3 3 3 3 4 3 3 2 3 3 3 3 3 2 2 2 2 2 2 2 3 3 3 3 3 3 4 4 4 4 4 5 5 5 5 5 5 5
2 3 5 6 4 4 4 4 3 3 3 3 3 3 4 4 3 3 3 2 2 2 2 2 2 2 2 3 3 3 3 3 3 3 3 4 4 4 4 4 4 4 5 5
2 2 3 5 4 4 4 4 3 3 3 3 3 3 3 4 3 3 3 2 2 2 2 2 2 2 2 2 2 2 2 2 3 3 3 3 3 3 3 3 4 4 4 4
2 3 5 6 5 4 4 5 4 3 2 2 2 2 2 4 3 3 2 2 2 2 2 2 2 2 2 2 2 2 2 2 2 2 2 2 2 2 3 3 3 3 3 4
1 2 3 4 3 4 5 6 5 4 3 3 2 3 4 3 3 3 2 2 2 2 1 1 1 2 2 2 1 1 1 1 2 2 2 2 2 2 2 2 2 3 3 3
1 2 4 4 3 3 4 5 5 4 4 4 4 4 3 3 3 2 2 2 2 1 1 1 1 1 1 1 1 1 1 1 1 1 1 2 2 2 2 2 2 2 2 2
1 3 4 4 4 5 5 5 5 5 5 5 4 4 3 3 3 2 2 2 1 1 1 1 1 0 1 0 1 1 1 1 1 1 1 1 1 1 1 1 1 1 1 2
0 1 2 4 5 5 5 5 6 5 5 5 4 4 3 3 2 2 2 2 1 1 1 0 0 0 0 -0 0 0 0 0 0 1 1 1 1 1 1 1 1 1 1 1
-0 0 2 5 6 6 6 5 5 5 5 4 4 4 3 3 2 2 2 1 1 1 0 0 0 -0 -0 -0 -0 -0 -0 -0 -0 -0 -0 -0 -0 -0 -0 -0 -0 -0 0 0
2 3 2 5 6 6 5 5 5 5 4 4 4 3 3 3 2 2 2 1 1 1 0 0 -0 -0 -1 -1 -1 -1 -1 -1 -1 -1 -1 -1 -1 -1 -1 -1 -1 -1 -1 -0
5 5 5 5 5 5 5 5 5 4 4 4 3 3 3 2 2 2 1 1 1 0 0 -0 -0 -1 -1 -1 -1 -1 -1 -1 -2 -2 -2 -2 -1 -1 -1 -1 -1 -1 -1 -1
4 4 4 5 5 5 5 4 4 4 4 3 3 3 2 2 2 1 1 1 0 0 -0 -0 -1 -1 -1 -1 -2 -2 -2 -2 -2 -2 -2 -2 -2 -2 -2 -2 -2 -1 -1 -1
4 4 4 4 4 4 4 4 3 3 3 3 3 2 2 2 1 1 1 0 -0 -0 -0 -1 -1 -1 -2 -2 -2 -2 -2 -2 -2 -2 -3 -3 -3 -3 -3 -3 -3 -2 -2 -2
4 4 4 3 4 4 4 3 3 3 3 3 2 2 2 1 1 1 0 -0 -0 -1 -1 -1 -1 -2 -2 -2 -2 -2 -3 -3 -3 -3 -3 -3 -3 -3 -3 -3 -3 -3 -3 -3
3 3 3 3 3 3 3 3 3 3 2 2 2 2 1 1 0 0 -0 -0 -1 -1 -1 -1 -2 -2 -2 -2 -3 -3 -3 -3 -3 -3 -3 -3 -3 -4 -4 -4 -4 -4 -4 -4
3 3 3 3 3 3 3 3 3 2 2 2 1 1 1 0 0 -0 -0 -1 -1 -1 -2 -2 -2 -2 -3 -3 -3 -3 -3 -3 -3 -3 -4 -4 -4 -4 -4 -4 -4 -4 -4 -4
2 2 3 2 2 2 2 2 2 2 2 1 1 0 0 -0 -0 -1 -1 -1 -1 -1 -2 -2 -2 -3 -3 -3 -3 -3 -4 -4 -4 -4 -4 -4 -4 -5 -5 -5 -5 -5 -5 -5
2 2 2 2 2 2 2 2 2 2 1 1 0 -0 -0 -1 -1 -1 -1 -1 -2 -2 -2 -2 -3 -3 -3 -3 -4 -4 -4 -4 -4 -4 -5 -5 -5 -5 -5 -6 -6 -6 -6 -6
2 2 2 2 2 2 2 1 1 1 1 0 -0 -0 -0 -1 -1 -2 -2 -2 -2 -2 -3 -3 -3 -3 -3 -4 -4 -4 -4 -5 -5 -5 -5 -5 -6 -6 -6 -6 -6 -6 -6 -6
1 1 1 1 1 1 1 1 1 1 0 -0 -0 -1 -1 -1 -2 -2 -2 -2 -2 -3 -3 -3 -3 -4 -4 -4 -4 -5 -5 -5 -5 -5 -6 -6 -6 -6 -6 -7 -7 -7 -7 -7
1 1 1 1 1 1 1 0 0 -0 -0 -1 -1 -1 -1 -2 -2 -2 -2 -3 -3 -3 -3 -3 -4 -4 -4 -5 -5 -5 -5 -5 -6 -6 -6 -6 -7 -7 -7 -7 -7 -7 -7 -7
0 0 0 0 0 -0 -0 -0 -1 -1 -1 -1 -1 -2 -2 -2 -2 -3 -3 -3 -3 -3 -4 -4 -4 -5 -5 -5 -5 -5 -6 -6 -6 -6 -7 -7 -7 -7 -7 -8 -8 -8 -8 -8
-0 -0 -0 -0 -0 -1 -1 -1 -1 -1 -2 -2 -2 -2 -2 -3 -3 -3 -3 -4 -4 -4 -4 -4 -5 -5 -5 -5 -6 -6 -6 -6 -7 -7 -7 -7 -7 -8 -8 -8 -8 -8 -8 -8
-1 -1 -1 -1 -1 -1 -1 -1 -2 -2 -2 -2 -2 -3 -3 -3 -3 -4 -4 -4 -4 -4 -5 -5 -5 -5 -5 -6 -6 -6 -6 -7 -7 -7 -7 -8 -8 -8 -8 -8 -8 -8 -8 -8
-1 -1 -1 -1 -1 -2 -2 -2 -2 -2 -3 -3 -3 -3 -3 -4 -4 -4 -4 -4 -5 -5 -5 -5 -6 -6 -6 -6 -6 -7 -7 -7 -7 -7 -8 -8 -8 -8 -8 -8 -8 -9 -9 -9
Wind_Speed
4 4 3 4 5 5 6 6 6 6 6 8 5 4 3 2 3 4 6 7 7 7 8 8 9 9 9 9 8 8 7 7 6 6 5 5 4 3 3 2 2 2 2 2
3 2 3 5 7 6 6 5 6 5 8 6 3 1 2 2 2 3 4 5 6 7 7 8 9 9 9 9 8 8 7 7 7 7 6 6 5 5 4 3 3 3 3 3
3 5 5 6 7 8 5 5 6 7 6 2 2 2 3 3 3 3 3 4 5 6 6 6 7 7 7 7 7 7 7 7 7 7 7 6 5 5 5 5 4 4 4 4
2 5 4 5 2 5 5 6 7 6 4 3 4 3 3 3 3 3 3 3 4 5 5 5 6 6 6 7 7 7 8 8 7 7 7 6 6 6 5 5 4 4 4 4
0 3 8 6 2 4 4 5 6 7 5 3 0 2 3 3 2 2 2 2 3 3 4 5 6 6 6 7 8 8 8 8 7 6 6 6 6 6 5 5 5 5 4 5
2 2 5 5 2 2 2 5 4 6 6 3 3 1 4 2 1 1 1 2 2 3 4 5 6 6 6 7 8 8 9 9 7 6 6 6 6 5 5 4 4 4 5 4
4 5 8 6 2 3 2 5 2 5 6 6 6 5 3 1 1 1 1 1 2 2 3 4 5 5 6 6 7 8 8 8 8 7 6 5 5 5 5 4 4 4 4 4
5 5 8 3 5 5 7 3 2 4 5 6 4 2 1 2 2 1 1 1 1 2 3 4 5 5 5 6 7 7 7 7 8 7 6 6 6 5 5 4 4 4 4 5
9 9 4 4 6 5 3 3 3 4 4 4 3 3 3 2 2 2 1 1 1 1 3 4 4 4 5 6 7 7 7 7 7 7 7 6 5 5 5 4 4 4 4 4
6 9 8 8 8 6 5 5 4 4 4 5 5 5 4 3 3 2 1 1 1 1 2 4 4 4 4 6 6 6 7 7 7 7 7 7 5 5 4 4 4 4 4 4
7 8 8 7 7 7 5 4 4 3 4 5 5 5 4 4 3 3 2 1 1 1 2 3 4 5 5 5 5 6 6 6 6 6 6 6 5 4 5 4 4 4 4 4
9 8 6 7 5 4 5 6 6 4 4 4 5 5 4 4 3 3 3 2 1 1 2 3 3 4 5 5 4 5 5 6 5 5 5 5 5 6 7 6 8 7 6 6
8 5 6 7 5 5 6 7 6 6 6 5 5 4 4 4 3 3 3 3 3 3 2 3 3 4 4 4 4 4 5 5 5 5 5 5 5 5 6 7 8 8 8 8
7 4 6 7 7 6 6 5 4 4 5 5 4 3 3 3 3 4 4 4 3 3 2 2 3 4 4 4 4 4 4 5 5 4 4 5 5 5 5 5 6 6 7 9
9 9 10 7 6 5 4 3 3 4 4 4 3 4 4 5 5 5 4 3 2 2 2 3 3 4 4 3 4 4 4 4 4 4 4 4 4 4 4 5 5 6 5 6
7 7 7 7 8 7 5 5 6 7 6 5 5 5 5 5 4 4 3 3 3 4 4 4 4 4 3 3 4 3 3 5 5 4 4 4 4 4 4 5 5 5 5 6
6 7 7 7 8 8 8 8 8 7 6 7 7 5 4 4 3 4 4 4 4 4 4 4 4 3 3 3 3 3 3 4 5 4 4 4 4 4 4 4 4 5 5 6
10 11 9 8 8 8 8 7 7 7 7 6 5 4 5 6 6 6 5 3 3 3 4 4 3 3 3 3 3 3 3 3 3 3 4 4 4 4 4 4 5 5 5 6
9 9 9 9 9 8 8 7 7 6 5 5 6 6 6 6 5 4 3 3 4 5 5 4 4 2 3 4 3 2 3 3 3 3 3 5 5 4 4 4 4 4 5 5
7 7 7 7 6 6 7 6 5 5 5 5 5 5 5 5 4 4 4 4 5 5 4 3 3 3 3 3 3 2 2 3 3 3 3 3 4 4 4 4 4 4 4 4
7 6 6 6 5 5 5 5 5 5 5 5 6 6 6 4 4 4 3 5 4 3 3 4 2 2 2 3 3 1 2 2 3 3 3 3 4 4 4 4 4 4 4 4
5 5 5 4 3 3 2 3 5 5 5 4 4 4 4 4 4 4 5 5 3 3 2 2 2 3 3 2 1 1 1 2 2 2 2 3 3 3 3 4 4 4 4 3
4 4 4 3 3 2 1 2 3 4 5 5 5 5 5 4 4 4 4 3 2 4 2 2 3 4 3 1 1 1 1 2 2 2 2 2 3 3 3 4 4 4 3 3
3 3 2 2 1 2 2 3 2 2 3 3 4 4 4 3 3 3 2 3 3 3 2 3 4 3 2 1 1 1 1 2 2 2 2 2 2 2 3 3 3 3 3 4
3 2 2 2 3 3 3 2 2 2 2 2 2 3 3 3 3 2 2 2 3 2 1 2 3 2 1 1 1 1 2 2 2 2 2 2 2 2 3 3 3 3 3 3
3 3 3 3 3 3 3 3 3 3 3 2 2 2 2 2 2 2 2 2 3 2 1 1 1 1 1 1 1 2 2 2 2 2 2 2 3 3 3 3 4 3 4 4
3 2 2 2 2 2 3 3 4 4 4 3 3 2 2 2 2 2 2 2 2 1 1 1 1 1 1 1 1 1 1 1 1 2 2 2 2 2 3 3 3 3 3 4
Wind_Direction
259 264 239 237 231 203 198 202 209 241 247 270 275 268 280 305 330 346 349 351 352 354 355 356 357 357 359 0 2 5 8 6 356 352 354 356 355 353 348 337 321 299 288 286
308 307 272 265 247 222 220 218 231 259 271 264 265 252 275 291 310 324 331 337 342 348 352 352 351 350 352 356 356 360 3 358 354 358 359 359 355 352 355 351 343 334 316 293
297 316 328 280 239 203 208 209 197 225 243 257 275 261 260 264 269 285 308 325 334 339 340 339 339 340 345 344 350 359 358 355 355 356 356 352 353 360 359 353 352 346 342 333
315 356 274 255 225 186 205 236 218 232 247 235 239 258 256 237 235 270 300 319 327 332 335 336 337 340 343 349 355 357 356 352 352 352 350 347 356 358 352 349 347 343 335 333
56 298 284 289 222 175 192 268 220 216 238 243 250 338 291 242 228 247 267 299 313 321 330 340 342 342 353 357 357 359 356 351 345 345 346 351 354 347 342 343 343 337 334 338
147 258 258 265 210 169 122 286 232 194 209 201 126 304 272 233 216 248 306 329 330 337 352 353 343 352 6 0 360 355 349 345 342 343 345 346 340 334 335 338 334 334 336 336
195 240 267 256 211 127 167 261 250 190 195 181 196 222 246 178 201 226 280 321 341 352 352 342 343 359 4 359 352 340 340 345 347 346 344 341 339 336 333 334 337 341 336 334
178 214 259 213 143 185 225 271 218 200 196 197 216 222 194 194 200 222 293 321 347 354 342 343 352 1 356 346 336 339 344 348 348 346 345 347 348 344 340 339 342 338 336 331
201 220 250 203 214 243 236 244 233 211 214 193 205 227 230 223 215 221 232 278 327 340 337 345 351 356 346 333 338 343 347 347 345 347 347 349 351 347 346 346 342 332 329 329
258 262 256 246 248 252 235 237 243 227 212 192 206 217 224 224 226 230 244 268 309 344 337 337 342 344 337 334 342 345 344 343 346 349 349 350 350 348 345 342 337 331 327 325
257 272 289 271 239 240 243 240 242 237 219 206 200 213 215 221 226 230 244 257 265 287 311 324 335 336 336 339 346 346 343 342 344 346 344 342 343 338 331 321 325 322 315 312
238 236 223 260 261 230 228 238 232 226 233 223 208 213 213 217 219 220 224 231 251 284 298 305 317 320 326 332 339 341 341 343 341 340 337 337 336 335 341 341 341 342 338 330
241 252 236 264 269 235 233 238 232 221 219 225 222 210 207 218 216 212 217 221 229 246 265 286 305 312 318 325 331 335 332 331 332 334 333 334 335 335 332 337 346 351 351 344
244 255 268 257 254 249 242 240 228 224 220 211 208 204 201 211 217 216 223 227 228 235 256 284 297 302 310 319 324 324 321 322 327 323 326 327 326 325 324 330 333 335 339 342
241 229 242 260 261 251 234 209 209 224 216 211 202 201 201 207 220 227 227 218 218 234 255 273 282 293 306 308 310 313 316 315 316 318 320 319 320 321 325 328 329 328 334 339
257 246 242 247 250 244 229 218 222 228 219 214 213 216 215 212 215 218 212 199 211 238 251 258 267 281 292 295 302 305 304 314 321 316 318 323 325 327 331 331 332 333 335 337
241 250 242 247 247 244 232 226 224 224 217 216 219 214 200 195 208 224 226 220 225 238 245 248 262 278 281 281 287 291 296 306 319 318 316 318 320 322 324 323 324 325 326 333
234 242 238 236 240 241 241 232 223 217 218 219 204 191 196 204 219 229 227 224 241 261 259 256 262 274 277 282 283 283 288 295 304 308 312 315 315 316 319 319 320 323 326 334
250 249 247 241 234 228 229 227 221 216 210 193 190 202 213 219 223 225 212 209 228 252 262 260 268 267 271 276 287 274 287 296 301 303 305 313 318 317 317 317 319 323 328 335
265 258 253 250 236 222 222 218 206 203 197 188 190 199 214 222 219 214 208 224 230 237 244 250 256 262 268 275 287 279 288 295 300 305 305 305 306 307 310 313 317 321 325 328
269 264 255 247 243 231 214 200 192 198 197 188 193 204 214 218 210 202 211 243 252 236 240 252 251 260 264 272 276 280 287 296 301 303 304 305 306 307 311 314 314 316 318 322
266 259 252 240 228 243 230 195 189 189 191 196 201 198 200 211 214 219 226 233 242 236 236 238 246 259 266 265 238 258 278 290 298 301 302 305 306 307 308 310 310 313 316 319
261 253 246 235 221 227 239 204 193 189 194 200 203 204 209 215 210 214 243 241 231 239 237 234 253 259 256 227 222 252 270 283 291 294 293 294 295 299 304 308 309 310 313 316
263 260 251 233 177 185 223 236 214 207 204 207 209 206 202 211 227 225 228 223 223 233 231 243 249 250 245 191 220 244 262 273 278 283 289 291 290 294 298 302 305 308 308 312
253 247 232 207 211 224 223 208 192 199 199 213 216 210 208 203 208 214 204 211 222 227 243 243 241 247 221 216 229 244 255 259 261 268 276 287 287 289 292 295 297 303 305 306
240 238 239 236 232 223 206 198 210 213 207 218 230 216 206 195 182 177 187 201 212 223 219 217 226 228 217 233 247 254 257 272 285 286 274 278 281 284 288 291 293 293 295 296
231 233 237 258 252 223 208 204 210 219 215 214 226 212 195 184 177 183 188 187 187 200 209 208 206 211 221 235 251 260 264 264 266 271 271 271 273 274 278 282 286 289 292 292
Height
1490 1487 1486 1484 1483 1485 1486 1485 1487 1480 1478 1470 1468 1467 1466 1465 1463 1461 1458 1456 1453 1450 1447 1444 1441 1438 1435 1432 1430 1428 1426 1425 1424 1423 1422 1422 1421 1421 1422 1422 1423 1423 1424 1425
1489 1485 1485 1482 1479 1480 1480 1480 1480 1478 1474 1467 1466 1466 1465 1464 1463 1461 1459 1457 1454 1452 1449 1445 1442 1439 1436 1434 1431 1429 1427 1425 1424 1422 1421 1420 1420 1420 1420 1420 1420 1421 1421 1421
1491 1488 1482 1479 1472 1474 1474 1473 1474 1473 1469 1465 1465 1464 1463 1463 1462 1461 1459 1458 1455 1452 1450 1446 1443 1440 1437 1435 1432 1429 1427 1425 1423 1422 1420 1419 1419 1418 1418 1418 1418 1418 1418 1418
1495 1490 1481 1471 1467 1467 1469 1467 1467 1466 1464 1463 1463 1463 1462 1461 1461 1460 1458 1457 1455 1452 1450 1447 1444 1441 1438 1435 1432 1429 1427 1424 1422 1421 1420 1419 1418 1417 1416 1416 1415 1415 1415 1414
1497 1494 1483 1468 1465 1466 1468 1465 1461 1462 1462 1462 1462 1462 1460 1460 1459 1459 1458 1456 1454 1452 1450 1447 1444 1441 1438 1435 1432 1429 1426 1424 1422 1420 1419 1418 1417 1416 1415 1415 1414 1413 1412 1411
1497 1491 1479 1464 1463 1462 1466 1464 1457 1457 1459 1460 1461 1464 1460 1458 1458 1457 1456 1455 1453 1451 1449 1446 1444 1441 1438 1435 1432 1429 1427 1424 1422 1421 1420 1418 1417 1415 1414 1413 1412 1410 1409 1408
1495 1493 1479 1464 1462 1464 1469 1461 1454 1454 1455 1457 1458 1458 1457 1456 1456 1456 1455 1454 1452 1450 1448 1446 1444 1441 1438 1435 1433 1430 1428 1425 1423 1421 1420 1418 1416 1415 1413 1412 1410 1408 1406 1405
1492 1491 1476 1461 1461 1463 1459 1454 1452 1452 1453 1454 1454 1454 1454 1454 1453 1453 1452 1451 1450 1448 1446 1445 1442 1440 1437 1435 1433 1431 1428 1425 1423 1421 1419 1417 1415 1413 1412 1410 1408 1406 1405 1403
1478 1470 1460 1457 1456 1455 1454 1452 1451 1451 1451 1452 1452 1452 1452 1452 1451 1451 1450 1449 1448 1446 1445 1443 1441 1439 1437 1435 1432 1430 1427 1425 1422 1420 1418 1416 1414 1412 1410 1408 1406 1404 1403 1401
1471 1459 1454 1453 1452 1452 1451 1451 1450 1450 1450 1449 1449 1450 1450 1449 1449 1448 1448 1447 1446 1444 1443 1441 1440 1438 1436 1434 1432 1429 1426 1424 1421 1419 1416 1414 1412 1410 1408 1406 1404 1403 1401 1400
1465 1455 1451 1447 1447 1447 1448 1448 1447 1447 1447 1447 1447 1447 1447 1447 1446 1446 1445 1444 1443 1442 1441 1439 1438 1436 1434 1432 1430 1427 1425 1422 1420 1418 1415 1413 1411 1409 1407 1405 1403 1401 1400 1398
1455 1448 1448 1444 1444 1444 1444 1444 1444 1443 1443 1443 1444 1443 1444 1444 1444 1443 1443 1442 1441 1440 1439 1438 1436 1434 1433 1430 1428 1426 1423 1421 1418 1416 1414 1411 1409 1407 1405 1404 1402 1400 1398 1397
1445 1444 1443 1441 1441 1441 1440 1440 1440 1439 1439 1440 1440 1441 1440 1440 1440 1440 1440 1439 1438 1438 1437 1435 1434 1432 1430 1428 1426 1424 1421 1419 1417 1414 1412 1409 1407 1405 1402 1401 1400 1398 1396 1394
1441 1441 1439 1437 1437 1436 1436 1436 1436 1435 1435 1436 1436 1437 1437 1437 1437 1436 1436 1436 1435 1435 1434 1433 1431 1430 1428 1426 1424 1422 1420 1417 1415 1412 1410 1408 1405 1403 1401 1398 1396 1394 1393 1391
1435 1435 1434 1432 1432 1431 1431 1431 1431 1430 1430 1431 1432 1432 1432 1432 1432 1432 1432 1432 1432 1431 1430 1429 1428 1427 1425 1423 1421 1419 1417 1415 1413 1410 1408 1406 1404 1401 1399 1397 1395 1393 1391 1389
1429 1428 1428 1427 1426 1426 1426 1426 1425 1425 1426 1426 1427 1427 1428 1428 1428 1428 1428 1428 1428 1427 1426 1425 1424 1423 1422 1420 1418 1417 1415 1412 1410 1408 1406 1404 1402 1399 1397 1395 1393 1391 1389 1387
1424 1422 1421 1421 1421 1420 1420 1420 1420 1421 1421 1422 1422 1423 1424 1424 1424 1424 1424 1424 1424 1423 1423 1422 1421 1420 1418 1417 1415 1413 1411 1410 1408 1406 1404 1402 1400 1397 1395 1393 1392 1390 1388 1387
1418 1417 1416 1416 1415 1415 1415 1415 1416 1416 1416 1417 1418 1419 1419 1419 1419 1420 1420 1420 1420 1419 1419 1418 1417 1416 1414 1413 1412 1410 1408 1406 1405 1403 1401 1399 1397 1395 1393 1391 1390 1388 1386 1385
1411 1410 1410 1410 1410 1410 1410 1410 1411 1411 1412 1413 1413 1414 1414 1415 1416 1416 1416 1415 1415 1414 1414 1414 1413 1412 1411 1409 1408 1406 1405 1403 1401 1400 1398 1396 1394 1393 1391 1389 1387 1386 1384 1383
1405 1405 1404 1404 1404 1404 1404 1405 1406 1407 1407 1408 1409 1409 1410 1411 1411 1411 1411 1411 1411 1411 1410 1410 1409 1408 1407 1406 1404 1403 1401 1400 1398 1396 1395 1393 1391 1390 1388 1387 1385 1384 1382 1380
1401 1400 1399 1399 1399 1399 1400 1400 1401 1402 1403 1404 1405 1405 1406 1406 1407 1407 1407 1407 1407 1407 1406 1406 1405 1404 1403 1402 1401 1400 1398 1397 1395 1393 1392 1390 1389 1387 1386 1384 1383 1381 1380 1378
1397 1396 1395 1395 1395 1395 1396 1397 1397 1398 1399 1400 1401 1401 1402 1402 1402 1402 1403 1403 1403 1403 1402 1401 1401 1400 1399 1398 1397 1396 1395 1393 1392 1391 1389 1388 1386 1385 1383 1382 1380 1379 1378 1377
1394 1393 1392 1392 1392 1392 1392 1393 1394 1395 1395 1396 1397 1397 1398 1398 1398 1398 1398 1399 1399 1398 1398 1398 1397 1397 1396 1395 1394 1393 1392 1390 1389 1388 1387 1385 1384 1383 1381 1380 1378 1377 1376 1375
1391 1390 1390 1389 1389 1389 1389 1390 1391 1392 1392 1393 1393 1394 1394 1394 1394 1394 1394 1394 1395 1394 1394 1394 1393 1393 1392 1391 1391 1390 1389 1388 1386 1385 1384 1383 1382 1380 1379 1377 1376 1375 1374 1373
1388 1388 1387 1387 1387 1387 1387 1387 1387 1388 1389 1389 1389 1390 1390 1390 1390 1390 1390 1390 1391 1390 1390 1390 1389 1389 1389 1388 1387 1386 1386 1385 1383 1382 1381 1380 1379 1378 1377 1375 1374 1373 1372 1371
1385 1384 1384 1384 1384 1384 1384 1384 1384 1384 1385 1385 1385 1386 1386 1386 1386 1386 1386 1386 1387 1387 1386 1386 1385 1385 1385 1384 1384 1383 1382 1381 1381 1380 1379 1378 1377 1376 1375 1373 1372 1371 1370 1369
1381 1381 1380 1380 1380 1380 1380 1380 1381 1381 1381 1381 1382 1382 1382 1382 1382 1382 1383 1383 1383 1383 1382 1382 1382 1381 1381 1381 1380 1379 1379 1378 1377 1377 1376 1375 1374 1373 1372 1371 1370 1369 1368 1367